PD1VW-10 Weather Reports


Display with metric or nautical units.
time (UTC)temp
F
wind
direction
speed
MPH
gust
MPH
rain 1hr
in
rain 24hr
in
rain mn
in
humidity
%
barometer
mb
20260506124055 57 47 15.0 17.0 0.00 0.00 0.00 65 1011.5
20260506123032 57 23 13.0 18.0 0.00 0.00 0.00 67 1011.4
20260506122029 57 29 15.0 22.0 0.00 0.00 0.00 64 1011.6
20260506121026 58 355 10.0 13.0 0.00 0.00 0.00 65 1011.4
20260506120023 58 41 8.0 9.0 0.00 0.00 0.00 61 1011.4
20260506115021 57 57 9.0 13.0 0.00 0.00 0.00 58 1011.5
20260506114018 59 38 12.0 16.0 0.00 0.00 0.00 61 1011.4
20260506113035 57 38 13.0 16.0 0.00 0.00 0.00 61 1011.5
20260506112043 58 75 16.0 21.0 0.00 0.00 0.00 62 1011.5
20260506111040 57 30 13.0 16.0 0.00 0.00 0.00 67 1011.4
20260506110037 58 52 13.0 16.0 0.00 0.00 0.00 65 1011.4
20260506105053 57 45 16.0 21.0 0.00 0.00 0.00 65 1011.5
20260506104030 57 53 13.0 16.0 0.00 0.00 0.00 69 1011.5
20260506103027 57 28 11.0 15.0 0.00 0.00 0.00 70 1011.4
20260506102025 57 35 12.0 15.0 0.00 0.00 0.00 71 1011.3
20260506101022 56 46 11.0 14.0 0.00 0.00 0.00 71 1011.5
20260506100039 57 35 12.0 15.0 0.00 0.00 0.00 72 1011.3
20260506095037 56 50 11.0 14.0 0.00 0.00 0.00 74 1011.4
20260506094044 55 51 10.0 14.0 0.00 0.00 0.00 74 1011.4
20260506093041 55 37 16.0 19.0 0.00 0.00 0.00 76 1011.5
20260506092038 55 354 14.0 18.0 0.00 0.00 0.00 76 1011.3
20260506091035 54 15 12.0 14.0 0.00 0.00 0.00 78 1011.4
20260506090033 54 43 11.0 14.0 0.00 0.00 0.00 78 1011.4
20260506085030 55 26 8.0 13.0 0.00 0.00 0.00 77 1011.4
20260506084027 54 44 13.0 16.0 0.00 0.00 0.00 75 1011.3
20260506083044 54 41 11.0 16.0 0.00 0.00 0.00 76 1011.3
20260506082022 54 65 17.0 22.0 0.00 0.00 0.00 75 1011.3
20260506081019 55 39 13.0 19.0 0.00 0.00 0.00 75 1011.3
20260506073039 53 33 11.0 13.0 0.00 0.00 0.00 80 1011.1
20260506072036 54 42 10.0 11.0 0.00 0.00 0.00 81 1011.2
20260506071033 53 51 11.0 16.0 0.00 0.00 0.00 81 1011.2
20260506062019 51 28 10.0 13.0 0.00 0.00 0.00 85 1011.1
20260506061017 51 351 10.0 15.0 0.00 0.00 0.00 85 1011.0
20260506051031 50 266 10.0 14.0 0.00 0.00 0.00 86 1010.8
20260506045025 50 266 10.0 13.0 0.00 0.00 0.00 85 1011.0
20260506044022 50 266 11.0 13.0 0.00 0.00 0.00 85 1011.0
20260506043019 50 266 10.0 13.0 0.00 0.00 0.00 85 1011.0
20260506042016 50 266 11.0 14.0 0.00 0.00 0.00 84 1010.9
20260506041044 50 267 12.0 14.0 0.00 0.00 0.00 83 1011.0
20260506040041 50 266 9.0 11.0 0.00 0.00 0.00 82 1011.0
20260506035038 50 267 12.0 14.0 0.00 0.00 0.00 82 1011.0
20260506034036 50 267 11.0 14.0 0.00 0.00 0.00 82 1011.0
20260506033033 50 266 10.0 14.0 0.00 0.00 0.00 84 1011.0
20260506032030 50 266 12.0 13.0 0.00 0.00 0.00 85 1011.2
20260506031028 50 266 9.0 11.0 0.00 0.00 0.00 85 1011.2
20260506030105 50 266 12.0 15.0 0.00 0.00 0.00 85 1011.1
20260506025022 50 266 8.0 9.0 0.00 0.00 0.00 85 1011.4
20260506024019 50 266 10.0 11.0 0.00 0.00 0.00 85 1011.3
20260506023016 50 266 11.0 15.0 0.00 0.00 0.00 85 1011.4
20260506022043 50 266 11.0 14.0 0.00 0.00 0.00 85 1011.4
20260506021100 50 266 11.0 14.0 0.00 0.00 0.00 84 1011.4
20260506020037 49 266 10.0 13.0 0.00 0.00 0.00 85 1011.3
20260506015035 49 266 10.0 13.0 0.00 0.00 0.00 85 1011.6
20260506014032 49 266 8.0 10.0 0.00 0.00 0.00 85 1011.6
20260506013028 49 266 10.0 11.0 0.00 0.00 0.00 85 1011.6
20260506012026 49 266 11.0 14.0 0.00 0.00 0.00 85 1011.5
20260506011023 49 266 9.0 10.0 0.00 0.00 0.00 86 1011.7
20260506010020 49 266 8.0 11.0 0.00 0.00 0.00 86 1011.6
20260506005017 49 266 10.0 13.0 0.00 0.00 0.00 86 1011.8
20260506004044 49 266 9.0 10.0 0.00 0.00 0.00 86 1011.9
20260506003041 48 266 11.0 16.0 0.00 0.00 0.00 87 1012.1
20260506002058 48 266 6.0 9.0 0.00 0.00 0.00 87 1012.1
20260506001035 48 266 7.0 9.0 0.00 0.00 0.00 88 1012.2
20260506000033 47 267 5.0 7.0 0.00 0.00 0.00 88 1012.1
20260505235050 47 267 6.0 7.0 0.00 0.00 0.00 88 1012.4
20260505234027 48 266 6.0 7.0 0.00 0.00 0.00 87 1012.3
20260505233024 47 266 6.0 8.0 0.00 0.00 0.00 87 1012.4
20260505232021 47 267 7.0 9.0 0.00 0.00 0.00 88 1012.6
20260505231038 48 266 6.0 7.0 0.00 0.00 0.00 87 1012.4
20260505230015 48 266 5.0 7.0 0.00 0.00 0.00 87 1012.7
20260505225042 48 266 7.0 9.0 0.00 0.00 0.00 86 1012.5
20260505224040 49 266 7.0 8.0 0.00 0.00 0.00 86 1012.6
20260505223036 49 266 6.0 8.0 0.00 0.00 0.00 85 1012.6
20260505222033 49 266 10.0 14.0 0.00 0.00 0.00 84 1012.6
20260505221031 49 266 9.0 13.0 0.00 0.00 0.00 83 1012.7
20260505220048 50 266 6.0 8.0 0.00 0.00 0.00 82 1012.8
20260505215025 50 266 9.0 13.0 0.00 0.00 0.00 82 1012.9
20260505214022 49 266 9.0 11.0 0.00 0.00 0.00 81 1013.1
20260505213019 49 266 6.0 7.0 0.00 0.00 0.00 79 1012.9
20260505212017 49 266 7.0 9.0 0.00 0.00 0.00 79 1013.0
20260505211044 49 266 7.0 10.0 0.00 0.00 0.00 79 1013.1
20260505210041 49 266 6.0 8.0 0.00 0.00 0.00 80 1013.0
20260505205038 49 266 8.0 10.0 0.00 0.00 0.00 80 1013.2
20260505204035 49 266 7.0 9.0 0.00 0.00 0.00 79 1013.1
20260505203032 49 266 7.0 8.0 0.00 0.00 0.00 79 1012.9
20260505202029 49 266 7.0 9.0 0.00 0.00 0.00 80 1013.0
20260505201026 49 266 6.0 8.0 0.00 0.00 0.00 79 1012.7
20260505200024 49 266 8.0 10.0 0.00 0.00 0.00 79 1012.8
20260505195021 49 266 7.0 9.0 0.00 0.00 0.00 80 1012.7
20260505194018 49 266 7.0 9.0 0.00 0.00 0.00 79 1012.6
20260505193015 49 266 7.0 9.0 0.00 0.00 0.00 79 1012.5
20260505192043 49 266 10.0 13.0 0.00 0.00 0.00 79 1012.6
20260505191040 50 266 10.0 13.0 0.00 0.00 0.00 78 1012.5
20260505190037 50 266 10.0 14.0 0.00 0.00 0.00 77 1012.5
20260505185034 50 266 9.0 11.0 0.00 0.00 0.00 77 1012.4
20260505184051 50 266 10.0 13.0 0.00 0.00 0.00 77 1012.5
20260505183028 51 267 10.0 14.0 0.00 0.00 0.00 75 1012.3
20260505182025 51 269 11.0 15.0 0.00 0.00 0.00 74 1012.5
20260505181042 51 308 13.0 16.0 0.00 0.00 0.00 75 1012.5
20260505180020 52 352 15.0 18.0 0.00 0.00 0.00 75 1012.5
20260505175017 52 31 14.0 18.0 0.00 0.00 0.00 74 1012.5
20260505174044 53 35 17.0 19.0 0.00 0.00 0.00 74 1012.5
20260505173041 53 33 14.0 21.0 0.00 0.00 0.00 74 1012.4
20260505172039 54 34 13.0 21.0 0.00 0.00 0.00 74 1012.4
20260505171056 54 46 15.0 17.0 0.00 0.00 0.00 73 1012.3
20260505170033 54 27 14.0 18.0 0.00 0.00 0.00 73 1012.3
20260505165050 54 36 15.0 19.0 0.00 0.00 0.00 73 1012.4
20260505164027 54 40 15.0 18.0 0.00 0.00 0.00 73 1012.3
20260505163024 55 28 19.0 23.0 0.00 0.00 0.00 72 1012.4
20260505162021 55 40 16.0 22.0 0.00 0.00 0.00 72 1012.8
20260505161039 55 31 15.0 21.0 0.00 0.00 0.00 72 1012.3
20260505153037 56 27 11.0 16.0 0.00 0.00 0.00 70 1012.4
20260505152035 56 46 16.0 21.0 0.00 0.00 0.00 70 1012.4
20260505151032 56 23 12.0 16.0 0.00 0.00 0.00 69 1012.5
20260505125022 56 28 13.0 16.0 0.00 0.00 0.00 69 1013.2